GW5131 Weather Reports


Display with metric or nautical units.
time (UTC)temp
F
wind
direction
speed
MPH
gust
MPH
rain 1hr
in
rain 24hr
in
rain mn
in
humidity
%
barometer
mb
20260906212526 75 299 3.0 4.0 0.00 0.00 0.00 79 979.8
20260906212022 76 339 1.0 3.0 0.00 0.00 0.00 80 979.7
20260906211521 79 63 2.0 4.0 0.00 0.00 0.00 75 979.6
20260906211011 80 13 2.0 6.0 0.00 0.00 0.00 74 979.4
20260906210501 80 350 2.0 3.0 0.00 0.00 0.00 75 979.6
20260906210000 79 350 1.0 4.0 0.00 0.00 0.00 69 979.6
20260906205456 80 12 1.0 3.0 0.00 0.00 0.00 71 979.5
20260906204952 79 52 2.0 4.0 0.00 0.00 0.00 68 979.5
20260906204451 79 66 2.0 4.0 0.00 0.00 0.00 72 979.6
20260906203950 80 16 0.0 2.0 0.00 0.00 0.00 72 979.8
20260906203445 80 17 2.0 2.0 0.00 0.00 0.00 68 979.4
20260906202943 80 49 4.0 8.0 0.00 0.00 0.00 70 979.8
20260906202436 80 58 1.0 4.0 0.00 0.00 0.00 73 979.6
20260906201931 80 52 2.0 6.0 0.00 0.00 0.00 70 979.8
20260906201426 80 338 2.0 3.0 0.00 0.00 0.00 74 979.7
20260906200921 79 338 1.0 6.0 0.00 0.00 0.00 75 979.7
20260906200417 80 62 2.0 3.0 0.00 0.00 0.00 72 979.8
20260906195917 80 322 1.0 3.0 0.00 0.00 0.00 71 979.9
20260906195414 80 322 0.0 3.0 0.00 0.00 0.00 70 980.0
20260906194909 79 322 2.0 4.0 0.00 0.00 0.00 75 979.9
20260906194405 79 59 8.0 11.0 0.00 0.00 0.00 71 979.9
20260906193900 78 60 1.0 2.0 0.00 0.00 0.00 73 980.0
20260906193355 78 55 4.0 9.0 0.00 0.00 0.00 72 980.2
20260906192851 79 328 4.0 4.0 0.00 0.00 0.00 73 979.9
20260906192344 77 53 1.0 2.0 0.00 0.00 0.00 76 980.1
20260906191839 78 43 1.0 4.0 0.00 0.00 0.00 76 980.2
20260906191339 79 330 0.0 2.0 0.00 0.00 0.00 76 980.1
20260906190833 78 60 0.0 2.0 0.00 0.00 0.00 77 980.1
20260906190333 78 61 0.0 2.0 0.00 0.00 0.00 77 980.2
20260906185833 78 64 1.0 3.0 0.00 0.00 0.00 79 980.3
20260906185331 78 64 2.0 6.0 0.00 0.00 0.00 77 980.2
20260906184826 79 330 2.0 2.0 0.00 0.00 0.00 77 980.3
20260906184321 78 295 1.0 3.0 0.00 0.00 0.00 82 980.1
20260906183817 78 315 1.0 3.0 0.00 0.00 0.00 79 980.3
20260906183313 79 310 2.0 2.0 0.00 0.00 0.00 83 980.3
20260906182813 78 339 2.0 3.0 0.00 0.00 0.00 80 980.2
20260906182308 78 275 1.0 1.0 0.00 0.00 0.00 82 980.4
20260906181803 77 275 2.0 7.0 0.00 0.00 0.00 84 980.4
20260906181300 76 307 1.0 3.0 0.00 0.00 0.00 84 980.5
20260906180800 78 287 7.0 8.0 0.00 0.00 0.00 79 980.4
20260906180255 78 328 2.0 2.0 0.00 0.00 0.00 83 980.7
20260906175752 78 1 3.0 3.0 0.00 0.00 0.00 80 980.7
20260906175249 77 322 3.0 4.0 0.00 0.00 0.00 82 980.8
20260906174747 75 26 3.0 3.0 0.00 0.00 0.00 85 980.8
20260906174246 75 53 1.0 1.0 0.00 0.00 0.00 83 980.6
20260906173741 76 62 2.0 7.0 0.00 0.00 0.00 83 980.7
20260906173237 76 318 0.0 2.0 0.00 0.00 0.00 83 980.8
20260906172736 75 318 2.0 2.0 0.00 0.00 0.00 85 980.9
20260906172232 76 328 2.0 2.0 0.00 0.00 0.00 86 980.9
20260906171732 76 52 2.0 2.0 0.00 0.00 0.00 87 980.7
20260906171227 76 53 4.0 6.0 0.00 0.00 0.00 82 980.9
20260906170723 76 319 0.0 6.0 0.00 0.00 0.00 86 980.9
20260906170218 75 47 1.0 2.0 0.00 0.00 0.00 86 980.9
20260906165714 74 284 1.0 2.0 0.00 0.00 0.00 88 980.8
20260906165209 73 333 2.0 3.0 0.00 0.00 0.00 91 980.9
20260906164708 74 68 1.0 2.0 0.00 0.00 0.00 88 981.0
20260906164204 73 80 0.0 1.0 0.00 0.00 0.00 88 981.1
20260906163659 73 59 1.0 3.0 0.00 0.00 0.00 87 981.0
20260906163155 73 59 0.0 2.0 0.00 0.00 0.00 90 981.1
20260906162652 73 59 0.0 3.0 0.00 0.00 0.00 89 980.9
20260906162152 72 59 0.0 0.0 0.00 0.00 0.00 92 981.1
20260906161647 72 58 0.0 3.0 0.00 0.00 0.00 91 981.1
20260906161146 72 59 3.0 4.0 0.00 0.00 0.00 92 981.1
20260906160645 72 313 0.0 0.0 0.00 0.00 0.00 93 981.2
20260906160144 71 313 2.0 3.0 0.00 0.00 0.00 92 981.3
20260906155641 72 311 0.0 1.0 0.00 0.00 0.00 94 981.3
20260906155137 71 311 1.0 3.0 0.00 0.00 0.00 94 981.4
20260906154633 70 311 0.0 1.0 0.00 0.00 0.00 96 981.3
20260906154132 70 311 1.0 2.0 0.00 0.00 0.00 96 981.4
20260906153631 70 311 3.0 4.0 0.00 0.00 0.00 96 981.3
20260906153127 70 350 0.0 2.0 0.00 0.00 0.00 97 981.4
20260906152626 70 59 3.0 3.0 0.00 0.00 0.00 96 981.3
20260906152121 70 57 0.0 2.0 0.00 0.00 0.00 97 981.1
20260906151615 70 57 0.0 1.0 0.00 0.00 0.00 97 981.1
20260906151112 70 56 2.0 6.0 0.00 0.00 0.00 95 981.2
20260906150607 70 66 3.0 3.0 0.00 0.00 0.00 96 981.0
20260906145601 70 350 0.0 3.0 0.00 0.00 0.00 96 981.0
20260906145055 70 350 2.0 3.0 0.00 0.00 0.00 96 981.0
20260906144550 70 350 1.0 2.0 0.00 0.00 0.00 96 981.1
20260906144046 70 65 1.0 1.0 0.00 0.00 0.00 97 981.1
20260906143540 69 65 1.0 2.0 0.00 0.00 0.00 97 981.0
20260906143038 69 64 0.0 2.0 0.00 0.00 0.00 96 981.2
20260906142536 69 64 0.0 2.0 0.00 0.00 0.00 96 981.1
20260906142032 69 61 1.0 1.0 0.00 0.00 0.00 97 980.9
20260906141525 69 62 1.0 3.0 0.00 0.00 0.00 97 981.0
20260906141021 69 62 2.0 3.0 0.00 0.00 0.00 97 980.9
20260906140514 69 61 1.0 2.0 0.00 0.00 0.00 98 980.8
20260906140014 69 61 1.0 3.0 0.00 0.00 0.00 97 980.9
20260906135511 69 42 0.0 0.0 0.00 0.00 0.00 98 980.9
20260906135007 69 49 1.0 3.0 0.00 0.00 0.00 98 980.7
20260906134502 69 48 0.0 0.0 0.00 0.00 0.00 99 980.6
20260906133957 69 48 0.0 2.0 0.00 0.00 0.00 99 980.6
20260906133453 69 50 1.0 1.0 0.00 0.00 0.00 99 980.7
20260906132948 69 50 1.0 1.0 0.00 0.00 0.00 99 980.5
20260906132443 69 50 0.0 0.0 0.00 0.00 0.00 99 980.4
20260906131938 68 50 0.0 0.0 0.00 0.00 0.00 99 980.5
20260906131434 68 50 0.0 0.0 0.00 0.00 0.00 99 980.4
20260906130930 68 50 0.0 0.0 0.00 0.00 0.00 99 980.3
20260906130428 69 50 0.0 1.0 0.00 0.00 0.00 99 980.4
20260906125928 69 50 0.0 1.0 0.00 0.00 0.00 99 980.5
20260906125426 68 50 0.0 0.0 0.00 0.00 0.00 99 980.6
20260906124925 68 50 0.0 0.0 0.00 0.00 0.00 99 980.6
20260906124421 68 50 0.0 0.0 0.00 0.00 0.00 99 980.4
20260906123916 68 50 0.0 0.0 0.00 0.00 0.00 99 980.4
20260906123415 68 50 0.0 0.0 0.00 0.00 0.00 99 980.3
20260906122915 68 50 0.0 1.0 0.00 0.00 0.00 99 980.2
20260906122410 68 50 0.0 0.0 0.00 0.00 0.00 99 980.1
20260906121907 68 50 0.0 1.0 0.00 0.00 0.00 99 980.2
20260906121403 67 50 0.0 0.0 0.00 0.00 0.00 99 980.0
20260906120859 68 50 2.0 2.0 0.00 0.00 0.00 99 979.8
20260906120354 67 50 1.0 1.0 0.00 0.00 0.00 99 980.0
20260906115850 68 50 1.0 2.0 0.00 0.00 0.00 99 979.7
20260906115345 68 50 0.0 0.0 0.00 0.00 0.00 99 979.7
20260906114845 68 50 0.0 0.0 0.00 0.00 0.00 99 979.8
20260906114341 68 50 0.0 0.0 0.00 0.00 0.00 99 979.7
20260906113841 68 50 0.0 0.0 0.00 0.00 0.00 99 979.8
20260906113340 67 50 1.0 1.0 0.00 0.00 0.00 99 979.6
20260906112835 0 0.0 0.0 0.00 0.00 0.00 979.6
20260906112332 67 55 0.0 0.0 0.00 0.00 0.00 99 979.4
20260906111826 67 55 0.0 0.0 0.00 0.00 0.00 99 979.3
20260906111325 67 55 0.0 0.0 0.00 0.00 0.00 99 979.4
20260906110821 67 56 0.0 0.0 0.00 0.00 0.00 99 979.1
20260906110316 67 56 0.0 0.0 0.00 0.00 0.00 99 979.2
20260906105815 67 56 1.0 1.0 0.00 0.00 0.00 99 979.1
20260906105311 67 126 2.0 2.0 0.00 0.00 0.00 99 979.2
20260906104807 67 84 0.0 1.0 0.00 0.00 0.00 99 979.0
20260906104305 67 85 1.0 3.0 0.00 0.00 0.00 99 978.9
20260906103804 67 15 0.0 0.0 0.00 0.00 0.00 99 978.9
20260906103303 67 15 0.0 0.0 0.00 0.00 0.00 99 978.8
20260906102759 67 15 0.0 0.0 0.00 0.00 0.00 99 978.9
20260906102258 67 15 0.0 0.0 0.00 0.00 0.00 99 978.9
20260906101753 67 15 0.0 0.0 0.00 0.00 0.00 99 978.9
20260906101248 67 15 0.0 1.0 0.00 0.00 0.00 99 978.9
20260906100743 68 15 0.0 0.0 0.00 0.00 0.00 99 979.1
20260906100242 67 15 0.0 0.0 0.00 0.00 0.00 99 978.8
20260906095738 67 15 0.0 0.0 0.00 0.00 0.00 99 978.8
20260906095233 68 15 0.0 0.0 0.00 0.00 0.00 99 978.8
20260906094732 68 15 0.0 0.0 0.00 0.00 0.00 99 978.7
20260906094227 68 15 0.0 0.0 0.00 0.00 0.00 99 978.7
20260906093724 68 15 0.0 0.0 0.00 0.00 0.00 99 978.8
20260906093219 68 15 0.0 0.0 0.00 0.00 0.00 99 978.7
20260906092715 68 15 0.0 1.0 0.00 0.00 0.00 99 978.6
20260906092214 68 15 0.0 0.0 0.00 0.00 0.00 99 978.9
20260906091711 68 15 0.0 0.0 0.00 0.00 0.00 99 978.9
20260906091207 68 15 0.0 1.0 0.00 0.00 0.00 99 978.9
20260906090703 68 15 0.0 1.0 0.00 0.00 0.00 99 978.8
20260906090202 68 15 0.0 0.0 0.00 0.00 0.00 99 978.7
20260906085701 68 14 2.0 2.0 0.00 0.00 0.00 99 978.8
20260906085200 68 14 0.0 0.0 0.00 0.00 0.00 99 978.6
20260906084655 68 14 0.0 0.0 0.00 0.00 0.00 99 978.9
20260906084154 68 14 0.0 0.0 0.00 0.00 0.00 99 978.8
20260906083649 68 14 0.0 0.0 0.00 0.00 0.00 99 978.6
20260906083145 68 14 0.0 0.0 0.00 0.00 0.00 99 978.8
20260906082640 68 14 0.0 0.0 0.00 0.00 0.00 99 978.6
20260906082136 68 14 0.0 0.0 0.00 0.00 0.00 99 978.4
20260906081631 68 14 0.0 0.0 0.00 0.00 0.00 99 978.6
20260906081126 68 14 0.0 0.0 0.00 0.00 0.00 99 978.6
20260906080622 68 14 0.0 0.0 0.00 0.00 0.00 99 978.3
20260906080119 68 14 0.0 0.0 0.00 0.00 0.00 99 978.5
20260906075612 68 14 0.0 0.0 0.00 0.00 0.00 99 978.5
20260906075107 68 14 0.0 0.0 0.00 0.00 0.00 99 978.6
20260906074602 68 14 0.0 0.0 0.00 0.00 0.00 99 978.4
20260906074055 68 14 0.0 0.0 0.00 0.00 0.00 99 978.5
20260906073550 68 14 0.0 0.0 0.00 0.00 0.00 99 978.6
20260906073046 68 14 0.0 0.0 0.00 0.00 0.00 99 978.5
20260906072541 68 14 0.0 0.0 0.00 0.00 0.00 99 978.5
20260906072037 68 14 0.0 0.0 0.00 0.00 0.00 99 978.6
20260906071533 68 14 0.0 0.0 0.00 0.00 0.00 99 978.5
20260906071028 68 14 0.0 0.0 0.00 0.00 0.00 99 978.4
20260906070525 68 14 0.0 0.0 0.00 0.00 0.00 99 978.6
20260906070020 68 14 0.0 0.0 0.00 0.00 0.00 99 978.5
20260906065519 68 14 0.0 0.0 0.00 0.00 0.00 99 978.4
20260906065015 68 14 0.0 0.0 0.00 0.00 0.00 99 978.5
20260906064511 68 14 0.0 0.0 0.00 0.00 0.00 99 978.7
20260906064011 68 14 0.0 0.0 0.00 0.00 0.00 99 978.7
20260906063506 68 14 0.0 0.0 0.00 0.00 0.00 99 978.9
20260906063001 68 14 0.0 0.0 0.00 0.00 0.00 99 978.9
20260906062456 68 14 0.0 0.0 0.00 0.00 0.00 99 978.6
20260906061951 68 14 0.0 0.0 0.00 0.00 0.00 99 978.7
20260906061442 68 14 0.0 0.0 0.00 0.00 0.00 99 978.7
20260906060941 68 14 0.0 0.0 0.00 0.00 0.00 99 978.7
20260906060438 68 14 0.0 0.0 0.00 0.00 0.00 99 978.7
20260906055934 68 14 0.0 0.0 0.00 0.00 0.00 99 978.6
20260906055430 68 14 0.0 0.0 0.00 0.00 0.00 99 978.7
20260906054925 68 14 0.0 0.0 0.00 0.00 0.00 99 978.6
20260906054420 68 14 0.0 0.0 0.00 0.00 0.00 99 978.5
20260906053916 68 14 0.0 0.0 0.00 0.00 0.00 99 978.5
20260906053412 68 14 0.0 0.0 0.00 0.00 0.00 99 978.6
20260906052907 68 14 0.0 0.0 0.00 0.00 0.00 99 978.4
20260906052403 68 14 0.0 0.0 0.00 0.00 0.00 99 978.6
20260906051900 68 14 0.0 0.0 0.00 0.00 0.00 99 978.6
20260906051400 68 14 0.0 0.0 0.00 0.00 0.00 99 978.8
20260906050856 68 14 0.0 0.0 0.00 0.00 0.00 99 978.7
20260906050350 68 14 0.0 0.0 0.00 0.00 0.00 99 978.6
20260906045849 68 14 0.0 0.0 0.00 0.00 0.00 99 978.9
20260906045343 68 14 0.0 0.0 0.00 0.00 0.00 99 978.5
20260906044840 68 14 0.0 0.0 0.00 0.00 0.00 99 978.6
20260906044334 68 14 0.0 0.0 0.00 0.00 0.00 99 978.5
20260906043830 68 14 0.0 0.0 0.00 0.00 0.00 99 978.4
20260906043327 69 14 0.0 0.0 0.00 0.00 0.00 99 978.6
20260906042826 69 14 0.0 0.0 0.00 0.00 0.00 99 978.7
20260906042325 69 14 0.0 0.0 0.00 0.00 0.00 99 978.6
20260906041821 69 14 0.0 0.0 0.00 0.00 0.00 99 978.7
20260906041316 69 14 0.0 0.0 0.00 0.00 0.00 99 978.9
20260906040811 68 14 0.0 0.0 0.00 0.00 0.00 99 978.7
20260906040306 68 14 0.0 0.0 0.00 0.00 0.00 99 978.9
20260906035801 69 14 0.0 0.0 0.00 0.78 0.78 99 978.8
20260906035252 69 14 0.0 0.0 0.00 0.78 0.78 99 978.8
20260906034751 69 14 0.0 0.0 0.00 0.78 0.78 99 979.0
20260906034246 69 14 0.0 0.0 0.00 0.78 0.78 99 979.0
20260906033742 69 14 0.0 0.0 0.00 0.78 0.78 99 979.1
20260906033241 69 14 0.0 0.0 0.00 0.78 0.78 99 979.2
20260906032738 69 14 0.0 0.0 0.00 0.78 0.78 99 979.1
20260906032238 69 14 0.0 0.0 0.00 0.78 0.78 99 979.1
20260906031733 70 14 0.0 0.0 0.00 0.78 0.78 99 979.3
20260906031229 70 14 0.0 0.0 0.00 0.78 0.78 99 979.3
20260906030729 70 14 0.0 0.0 0.00 0.78 0.78 99 979.3
20260906030224 70 14 0.0 0.0 0.00 0.78 0.78 99 979.5
20260906025723 70 14 0.0 0.0 0.00 0.78 0.78 99 979.7
20260906025218 70 14 0.0 0.0 0.00 0.78 0.78 99 979.5
20260906024717 70 14 0.0 0.0 0.07 0.78 0.78 99 979.3
20260906024216 70 14 0.0 0.0 0.07 0.78 0.78 99 979.5
20260906023713 71 14 0.0 0.0 0.00 0.77 0.77 99 979.3
20260906023212 70 14 0.0 2.0 0.00 0.77 0.77 99 979.1
20260906022708 70 14 2.0 3.0 0.00 0.77 0.77 99 978.9
20260906022203 71 15 0.0 0.0 0.00 0.77 0.77 99 979.0
20260906021700 71 15 0.0 0.0 0.00 0.77 0.77 99 979.1
20260906021158 71 15 0.0 0.0 0.00 0.77 0.77 99 979.1
20260906020653 71 15 0.0 0.0 0.00 0.77 0.77 99 979.2
20260906020148 71 15 0.0 1.0 0.00 0.77 0.77 99 979.0
20260906015647 71 15 0.0 0.0 0.00 0.77 0.77 99 979.3
20260906015141 71 15 1.0 2.0 0.00 0.77 0.77 99 979.3
20260906014640 72 15 0.0 0.0 0.00 0.77 0.77 99 979.0
20260906014136 72 15 0.0 0.0 0.05 0.77 0.77 99 979.0
20260906013632 72 15 0.0 2.0 0.12 0.77 0.77 99 978.9
20260906013127 72 15 0.0 0.0 0.07 0.76 0.76 99 979.1
20260906012627 72 15 1.0 2.0 0.00 0.75 0.75 99 978.7
20260906012122 71 14 1.0 3.0 0.00 0.75 0.75 99 978.8
20260906011618 71 16 2.0 3.0 0.00 0.75 0.75 99 978.6
20260906011113 70 280 0.0 2.0 0.00 0.75 0.75 99 978.6
20260906010608 70 280 0.0 1.0 0.00 0.75 0.75 99 978.5
20260906010104 70 280 0.0 0.0 0.00 0.75 0.75 99 978.1
20260906005603 70 280 0.0 0.0 0.00 0.75 0.75 99 978.2
20260906005102 70 280 0.0 0.0 0.00 0.75 0.75 99 978.0
20260906004602 70 280 0.0 0.0 0.00 0.75 0.75 99 978.0
20260906004057 70 280 0.0 0.0 0.00 0.75 0.75 99 978.1
20260906003552 70 280 0.0 0.0 0.00 0.75 0.75 99 978.0
20260906003048 69 280 0.0 0.0 0.00 0.75 0.75 99 977.7
20260906002542 70 280 0.0 0.0 0.00 0.75 0.75 99 977.8
20260906002037 70 280 0.0 0.0 0.00 0.75 0.75 99 977.7
20260906001533 70 280 0.0 0.0 0.00 0.75 0.75 99 977.9
20260906001033 70 280 0.0 0.0 0.00 0.75 0.75 99 977.8
20260906000529 70 280 0.0 0.0 0.00 0.75 0.75 99 977.9
20260906000024 70 280 0.0 0.0 0.00 0.75 0.75 99 977.8
20260905235524 71 280 0.0 0.0 0.00 0.75 0.75 99 977.6
20260905235019 71 280 0.0 0.0 0.00 0.75 0.75 99 977.6
20260905234514 71 280 0.0 0.0 0.00 0.75 0.75 99 977.8
20260905234008 71 280 0.0 0.0 0.00 0.75 0.75 98 977.9
20260905233503 72 280 0.0 0.0 0.00 0.75 0.75 98 978.0
20260905233002 72 280 0.0 0.0 0.00 0.75 0.75 98 977.9
20260905232458 72 280 0.0 0.0 0.00 0.75 0.75 97 977.9
20260905231954 72 280 0.0 0.0 0.00 0.75 0.75 97 978.0
20260905231449 72 280 0.0 0.0 0.00 0.75 0.75 97 978.0
20260905230946 73 280 0.0 0.0 0.00 0.75 0.75 96 978.2
20260905230444 73 280 0.0 0.0 0.00 0.75 0.75 95 977.9
20260905225942 73 280 0.0 0.0 0.00 0.75 0.75 94 978.0
20260905225438 73 280 0.0 0.0 0.00 0.75 0.75 94 977.8
20260905224933 73 280 0.0 0.0 0.00 0.75 0.75 94 978.0
20260905224429 73 280 0.0 1.0 0.00 0.75 0.75 94 978.0
20260905223928 74 280 1.0 1.0 0.00 0.75 0.75 94 977.9
20260905223426 73 280 0.0 1.0 0.00 0.75 0.75 94 977.9
20260905222920 74 280 3.0 3.0 0.00 0.75 0.75 94 978.0
20260905222420 74 280 0.0 0.0 0.00 0.75 0.75 92 978.0
20260905221915 74 280 1.0 1.0 0.00 0.75 0.75 90 977.9
20260905221412 76 280 2.0 2.0 0.00 0.75 0.75 89 978.0
20260905220908 77 280 1.0 2.0 0.00 0.75 0.75 79 977.8
20260905220404 78 280 0.0 1.0 0.00 0.75 0.75 82 977.8
20260905215903 0 0.0 0.0 0.00 0.75 0.75 977.7
20260905215358 0 0.0 0.0 0.00 0.75 0.75 977.7
20260905214850 0 0.0 0.0 0.00 0.75 0.75 977.5
20260905214345 81 280 1.0 1.0 0.00 0.75 0.75 77 977.7
20260905213839 81 280 1.0 1.0 0.00 0.75 0.75 77 977.7
20260905213336 80 280 1.0 1.0 0.00 0.75 0.75 78 977.7
20260905212835 81 280 1.0 1.0 0.00 0.75 0.75 75 977.5